• In Latvia
  • List of Countries
  • For 7 days
  • Water Temperature
  • Satellite Maps
  • Weather Map
  • Weather Widgets
  • user-avatar
    Login

    Hourly Weather Wlora

    Today, 19 November, Sunday

    Time Temperature Precipitation Wind Pressure Humidity
    00:00 +14°C° 0 mm 6 mps 758 mmHg 81%
    01:00 +14°C° 0 mm 6 mps 758 mmHg 84%
    02:00 +14°C° 0 mm 6 mps 758 mmHg 84%
    03:00 +13°C° 0 mm 6 mps 758 mmHg 85%
    04:00 +13°C° 0 mm 5 mps 758 mmHg 85%
    05:00 +13°C° 0.1 mm 5 mps 758 mmHg 84%
    06:00 +13°C° 0.1 mm 5 mps 758 mmHg 84%
    07:00 +12°C° 0.1 mm 5 mps 758 mmHg 84%
    08:00 +14°C° 0.1 mm 5 mps 758 mmHg 78%
    09:00 +15°C° 0.1 mm 5 mps 759 mmHg 73%
    10:00 +16°C° 0.1 mm 5 mps 759 mmHg 67%
    11:00 +16°C° 0.1 mm 5 mps 758 mmHg 67%
    12:00 +17°C° 0.1 mm 5 mps 758 mmHg 66%
    13:00 +17°C° 0.1 mm 6 mps 758 mmHg 66%
    14:00 +16°C° 0.1 mm 6 mps 758 mmHg 71%
    15:00 +15°C° 0.1 mm 6 mps 758 mmHg 75%
    16:00 +14°C° 0.1 mm 6 mps 758 mmHg 80%
    17:00 +14°C° 0.1 mm 6 mps 758 mmHg 82%
    18:00 +13°C° 0.1 mm 5 mps 758 mmHg 84%
    19:00 +13°C° 0.1 mm 5 mps 758 mmHg 86%
    20:00 +13°C° 0.1 mm 5 mps 758 mmHg 86%
    21:00 +11°C° 0.1 mm 6 mps 758 mmHg 86%
    22:00 +11°C° 0.1 mm 6 mps 759 mmHg 86%
    23:00 +11°C° 0.2 mm 7 mps 759 mmHg 87%

    Tomorrow, 20 November, Monday

    Time Temperature Precipitation Wind Pressure Humidity
    00:00 +10°C° 0.2 mm 7 mps 759 mmHg 87%
    01:00 +10°C° 0.2 mm 8 mps 759 mmHg 87%
    02:00 +10°C° 0.4 mm 8 mps 759 mmHg 86%
    03:00 +10°C° 0.4 mm 9 mps 759 mmHg 85%
    04:00 +10°C° 0.4 mm 9 mps 759 mmHg 84%
    05:00 +10°C° 0.2 mm 9 mps 760 mmHg 84%
    06:00 +8°C° 0.2 mm 10 mps 760 mmHg 83%
    07:00 +8°C° 0.2 mm 10 mps 761 mmHg 83%
    08:00 +9°C° 0 mm 10 mps 761 mmHg 75%
    09:00 +11°C° 0 mm 10 mps 762 mmHg 67%
    10:00 +12°C° 0 mm 10 mps 762 mmHg 60%
    11:00 +12°C° 0 mm 10 mps 763 mmHg 56%
    12:00 +12°C° 0 mm 9 mps 763 mmHg 53%
    13:00 +12°C° 0 mm 9 mps 763 mmHg 49%
    14:00 +11°C° 0 mm 9 mps 763 mmHg 52%
    15:00 +10°C° 0 mm 9 mps 764 mmHg 55%
    16:00 +10°C° 0 mm 9 mps 764 mmHg 58%
    17:00 +9°C° 0 mm 8 mps 764 mmHg 60%
    18:00 +7°C° 0 mm 8 mps 765 mmHg 63%
    19:00 +6°C° 0 mm 7 mps 765 mmHg 65%
    20:00 +7°C° 0 mm 6 mps 766 mmHg 63%
    21:00 +7°C° 0 mm 6 mps 766 mmHg 62%
    22:00 +6°C° 0 mm 5 mps 767 mmHg 61%
    23:00 +6°C° 0 mm 5 mps 767 mmHg 60%

    Day after tomorrow, 21 November, Tuesday

    Time Temperature Precipitation Wind Pressure Humidity
    00:00 +6°C° 0 mm 5 mps 767 mmHg 59%
    01:00 +6°C° 0 mm 5 mps 767 mmHg 58%
    02:00 +6°C° 0 mm 4 mps 766 mmHg 57%
    03:00 +6°C° 0 mm 4 mps 766 mmHg 55%
    04:00 +7°C° 0 mm 3 mps 766 mmHg 54%
    05:00 +7°C° 0 mm 3 mps 766 mmHg 52%
    06:00 +7°C° 0 mm 3 mps 766 mmHg 50%
    07:00 +7°C° 0 mm 3 mps 766 mmHg 48%
    08:00 +9°C° 0 mm 2 mps 766 mmHg 44%
    09:00 +12°C° 0 mm 2 mps 766 mmHg 40%
    10:00 +13°C° 0 mm 1 mps 766 mmHg 37%
    11:00 +14°C° 0 mm 1 mps 766 mmHg 36%
    12:00 +15°C° 0 mm 1 mps 766 mmHg 36%
    13:00 +15°C° 0 mm 1 mps 766 mmHg 36%
    14:00 +14°C° 0 mm 1 mps 765 mmHg 40%
    15:00 +13°C° 0 mm 1 mps 765 mmHg 44%
    16:00 +13°C° 0 mm 1 mps 765 mmHg 49%
    17:00 +12°C° 0 mm 1 mps 766 mmHg 49%
    18:00 +10°C° 0 mm 2 mps 766 mmHg 50%
    19:00 +10°C° 0 mm 2 mps 766 mmHg 51%
    20:00 +9°C° 0 mm 2 mps 766 mmHg 51%
    21:00 +9°C° 0 mm 2 mps 766 mmHg 51%
    22:00 +9°C° 0 mm 2 mps 766 mmHg 51%
    23:00 +9°C° 0 mm 2 mps 766 mmHg 50%

    22 November, Wednesday

    Time Temperature Precipitation Wind Pressure Humidity
    00:00 +9°C° 0 mm 2 mps 766 mmHg 49%
    01:00 +9°C° 0 mm 2 mps 766 mmHg 49%
    02:00 +9°C° 0 mm 2 mps 766 mmHg 48%
    03:00 +9°C° 0 mm 2 mps 766 mmHg 47%
    04:00 +9°C° 0 mm 2 mps 765 mmHg 47%
    05:00 +9°C° 0 mm 2 mps 766 mmHg 47%
    06:00 +9°C° 0 mm 2 mps 766 mmHg 47%
    07:00 +9°C° 0 mm 2 mps 766 mmHg 47%
    08:00 +12°C° 0 mm 2 mps 766 mmHg 45%
    09:00 +13°C° 0 mm 2 mps 766 mmHg 42%
    10:00 +15°C° 0 mm 1 mps 766 mmHg 40%
    11:00 +16°C° 0 mm 1 mps 766 mmHg 41%
    12:00 +17°C° 0 mm 2 mps 766 mmHg 42%
    13:00 +17°C° 0 mm 2 mps 765 mmHg 42%
    14:00 +16°C° 0 mm 2 mps 765 mmHg 48%
    15:00 +15°C° 0 mm 2 mps 765 mmHg 54%
    16:00 +14°C° 0 mm 2 mps 765 mmHg 60%
    17:00 +14°C° 0 mm 2 mps 766 mmHg 62%
    18:00 +13°C° 0 mm 2 mps 766 mmHg 64%
    19:00 +12°C° 0 mm 2 mps 766 mmHg 66%
    20:00 +12°C° 0 mm 2 mps 766 mmHg 65%
    21:00 +12°C° 0 mm 2 mps 767 mmHg 64%
    22:00 +12°C° 0 mm 2 mps 767 mmHg 64%
    23:00 +12°C° 0 mm 2 mps 767 mmHg 63%

    23 November, Thursday

    Time Temperature Precipitation Wind Pressure Humidity
    00:00 +12°C° 0 mm 2 mps 767 mmHg 62%
    01:00 +12°C° 0 mm 2 mps 767 mmHg 62%
    02:00 +10°C° 0 mm 2 mps 767 mmHg 61%
    03:00 +10°C° 0 mm 2 mps 767 mmHg 60%
    04:00 +10°C° 0 mm 2 mps 767 mmHg 59%
    05:00 +10°C° 0 mm 2 mps 767 mmHg 58%
    06:00 +10°C° 0 mm 2 mps 767 mmHg 58%
    07:00 +10°C° 0 mm 2 mps 767 mmHg 57%
    08:00 +13°C° 0 mm 2 mps 768 mmHg 52%
    09:00 +15°C° 0 mm 1 mps 768 mmHg 47%
    10:00 +18°C° 0 mm 1 mps 768 mmHg 43%
    11:00 +19°C° 0 mm 1 mps 768 mmHg 43%
    12:00 +19°C° 0 mm 1 mps 768 mmHg 43%
    13:00 +20°C° 0 mm 1 mps 768 mmHg 43%
    14:00 +17°C° 0 mm 2 mps 768 mmHg 48%
    15:00 +16°C° 0 mm 2 mps 768 mmHg 54%
    16:00 +15°C° 0 mm 2 mps 768 mmHg 60%
    17:00 +15°C° 0 mm 2 mps 768 mmHg 61%
    18:00 +14°C° 0 mm 2 mps 768 mmHg 62%
    19:00 +13°C° 0 mm 2 mps 768 mmHg 63%
    20:00 +13°C° 0 mm 2 mps 769 mmHg 63%
    21:00 +13°C° 0 mm 2 mps 769 mmHg 62%
    22:00 +13°C° 0 mm 2 mps 769 mmHg 61%
    23:00 +13°C° 0 mm 2 mps 769 mmHg 61%

    24 November, Friday

    Time Temperature Precipitation Wind Pressure Humidity
    00:00 +13°C° 0 mm 1 mps 769 mmHg 60%
    01:00 +12°C° 0 mm 1 mps 769 mmHg 60%
    02:00 +12°C° 0 mm 1 mps 769 mmHg 59%
    03:00 +12°C° 0 mm 1 mps 769 mmHg 59%
    04:00 +12°C° 0 mm 2 mps 769 mmHg 59%
    05:00 +12°C° 0 mm 2 mps 769 mmHg 58%
    06:00 +12°C° 0 mm 2 mps 769 mmHg 58%
    07:00 +12°C° 0 mm 2 mps 769 mmHg 57%
    08:00 +14°C° 0 mm 2 mps 769 mmHg 52%
    09:00 +16°C° 0 mm 1 mps 769 mmHg 48%
    10:00 +19°C° 0 mm 1 mps 769 mmHg 43%
    11:00 +19°C° 0 mm 1 mps 769 mmHg 43%
    12:00 +20°C° 0 mm 1 mps 769 mmHg 42%
    13:00 +20°C° 0 mm 1 mps 768 mmHg 42%
    14:00 +18°C° 0 mm 2 mps 768 mmHg 48%
    15:00 +17°C° 0 mm 2 mps 768 mmHg 54%
    16:00 +16°C° 0 mm 2 mps 768 mmHg 60%
    17:00 +15°C° 0 mm 2 mps 769 mmHg 61%
    18:00 +14°C° 0 mm 2 mps 769 mmHg 61%
    19:00 +14°C° 0 mm 2 mps 769 mmHg 62%
    20:00 +14°C° 0 mm 1 mps 769 mmHg 61%
    21:00 +13°C° 0 mm 1 mps 769 mmHg 61%
    22:00 +13°C° 0 mm 1 mps 769 mmHg 61%
    23:00 +13°C° 0 mm 1 mps 769 mmHg 61%
    Show more